Weather History for Portland Troutdale, OR

Change the Weather History Date:

Sunday, March 30, 2014

  Actual Average Record
Temperature  
Mean Temperature 46 °F 50 °F  
Max Temperature 54 °F 59 °F 76 °F (1994)
Min Temperature 38 °F 40 °F 28 °F (1968)
Degree Days  
Heating Degree Days 19 15  
Month to date heating degree days 460 530  
Cooling Degree Days 0 0  
Month to date cooling degree days 0 0  
Moisture  
Dew Point 40 °F    
Average Humidity 76    
Maximum Humidity 92    
Minimum Humidity 59    
Precipitation  
Precipitation 0.08 in 0.14 in 1.17 in (1983)
Month to date precipitation 5.29 4.49  
Year to date precipitation 11.35 15.76  
Sea Level Pressure  
Sea Level Pressure 29.98 in    
Wind  
Wind Speed 5 mph (WSW)    
Max Wind Speed 17 mph    
Max Gust Speed 29 mph    
Visibility 10 miles    
Events Rain    
T = Trace of Precipitation, MM = Missing Value Source: NWS Daily Summary

Daily Weather History Graph

Daily Weather History Graph

Search for Another Location

Airport:

Trip Planner

Search our weather history database for the weather conditions in past years. The results will help you decide how hot, cold, wet, or windy it might be!

Date:

Astronomy

Mar. 30, 2014 Rise Set
Actual Time 6:53 AM PDT 7:35 PM PDT
Civil Twilight 6:23 AM PDT 8:05 PM PDT
Nautical Twilight 5:48 AM PDT 8:40 PM PDT
Astronomical Twilight 5:11 AM PDT 9:18 PM PDT
Moon 6:42 AM PDT (3/30) 7:56 PM PDT (3/30)
Length of Visible Light 13h 41m
Length of Day
12h 41m
New Moon, 0% of the Moon is Illuminated
Mar 30
New Moon
Apr 7
First Quarter
Apr 15
Full
Apr 22
Last Quarter
Apr 28
New

Hourly Weather History & Observations

Time (PDT) Temp. Windchill Dew Point Humidity Pressure Visibility Wind Dir Wind Speed Gust Speed Precip Events Conditions
12:53 AM 48.0 °F - 42.1 °F 80% 29.92 in 10.0 mi SSW 6.9 mph - N/A   Overcast
1:53 AM 46.9 °F - 42.1 °F 83% 29.92 in 10.0 mi SW 9.2 mph - N/A   Partly Cloudy
2:53 AM 46.9 °F - 42.1 °F 83% 29.93 in 10.0 mi SSW 10.4 mph - N/A   Overcast
3:53 AM 46.9 °F - 42.1 °F 83% 29.94 in 10.0 mi SSW 10.4 mph - N/A   Overcast
4:53 AM 46.9 °F - 41.0 °F 80% 29.95 in 10.0 mi SW 9.2 mph - N/A   Overcast
5:53 AM 46.0 °F 41.4 °F 41.0 °F 83% 29.96 in 10.0 mi SW 9.2 mph - 0.00 in Rain Light Rain
6:53 AM 45.0 °F - 41.0 °F 86% 29.98 in 10.0 mi Calm Calm - 0.00 in   Scattered Clouds
7:53 AM 43.0 °F - 39.9 °F 89% 30.01 in 10.0 mi Calm Calm - N/A   Clear
8:53 AM 46.9 °F - 41.0 °F 80% 30.01 in 10.0 mi South 5.8 mph - N/A   Partly Cloudy
9:53 AM 48.9 °F - 41.0 °F 74% 30.02 in 10.0 mi Calm Calm - N/A   Mostly Cloudy
10:00 AM 48.9 °F - 39.9 °F 71% 30.02 in 10.0 mi Calm Calm - N/A   Mostly Cloudy
10:53 AM 52.0 °F - 39.0 °F 61% 30.01 in 10.0 mi WSW 8.1 mph - N/A   Mostly Cloudy
11:53 AM 51.1 °F - 37.0 °F 59% 30.01 in 10.0 mi Variable 4.6 mph - N/A   Overcast
12:53 PM 54.0 °F - 39.0 °F 57% 30.00 in 10.0 mi WSW 9.2 mph - N/A   Overcast
1:53 PM 50.0 °F - 37.9 °F 63% 30.00 in 10.0 mi NNW 4.6 mph - 0.00 in Rain Light Rain
2:53 PM 52.0 °F - 39.9 °F 63% 29.99 in 10.0 mi SW 8.1 mph - 0.05 in   Overcast
3:53 PM 51.1 °F - 37.0 °F 59% 29.99 in 9.0 mi West 19.6 mph 28.8 mph 0.00 in   Mostly Cloudy
4:53 PM 53.1 °F - 39.0 °F 59% 29.98 in 10.0 mi Calm Calm - 0.03 in   Mostly Cloudy
5:53 PM 53.1 °F - 39.9 °F 61% 29.98 in 10.0 mi North 3.5 mph - N/A   Overcast
6:53 PM 51.1 °F - 39.9 °F 66% 29.98 in 10.0 mi West 8.1 mph - N/A   Scattered Clouds
7:53 PM 48.9 °F - 39.0 °F 69% 29.98 in 10.0 mi NNW 3.5 mph - N/A   Clear
8:53 PM 44.1 °F - 39.0 °F 82% 29.99 in 10.0 mi Calm Calm - N/A   Scattered Clouds
9:53 PM 44.1 °F - 39.0 °F 82% 29.99 in 10.0 mi Calm Calm - N/A   Partly Cloudy
10:53 PM 41.0 °F - 37.9 °F 89% 29.99 in 10.0 mi Calm Calm - N/A   Clear
11:53 PM 39.0 °F - 37.0 °F 93% 29.97 in 10.0 mi Calm Calm - N/A   Clear